Regional Weather Roundup
Issued by NWS Upton, NY

Current Version | Previous Version | Graphics & Text | Print | Product List | Glossary Off
Versions: 1 2 3 4 5 6 7 8 9 10 11 12 13 14 15 16 17 18 19 20 21 22 23 24 25 26 27

000
ASUS41 KOKX 250806
RWROKX

Regional Weather Roundup
National Weather Service New York NY
400 AM EDT WED APR 25 2018

Note: "FAIR" indicates few or no clouds below 12,000 feet with no
significant weather and/or obstructions to visibility.

NYZ071-072-176-178-NJZ106-104-250900-
New York City Metro Area

CITY           SKY/WX    TMP DP  RH WIND       PRES   REMARKS
Central Park   RAIN      53  51  93 VRB6      30.05F FOG
Bronx Bot Gard   N/A     48  46  93 E7        30.06F
Bronx Lehman C   N/A     50  48  93 E12         N/A
LaGuardia Arpt LGT RAIN  51  48  89 NE9       30.03F FOG
Queens College   N/A     54  52  94 SE9         N/A
Kennedy Intl   LGT RAIN  52  52 100 E14       30.04F FOG
Breezy Point     N/A     48 N/A N/A E12G17      N/A
Brooklyn Coll    N/A     52  52 100 E13         N/A
Staten Island    N/A     52  52 100 E14         N/A
Newark/Liberty LGT RAIN  53  53 100 E12       30.02F FOG
Teterboro      LGT RAIN  52  50  93 E7        30.02F FOG
$$

NYZ177-179-078>081-250900-
Long Island New York

CITY           SKY/WX    TMP DP  RH WIND       PRES   REMARKS
Jones Beach      N/A     50 N/A N/A E12G17      N/A
Wantagh          N/A     52  50  93 E10         N/A
Hempstead        N/A     54  52  94 SE10      30.07F
Matinecock Pt    N/A     46 N/A N/A E16         N/A
Farmingdale    LGT RAIN  53  52  96 E9        30.05F FOG
MacArthur/ISP  LGT RAIN  53  52  96 SE15      30.06F
Stony Brook      N/A     54  52  94 SE6         N/A
Shirley        LGT RAIN  53  52  96 SE13G22   30.07F
Mt Sinai Harb    N/A    N/A N/A N/A SE10G16     N/A
Westhampton    LGT RAIN  51  48  89 SE10G18   30.09F
East Hampton   RAIN      49  46  92 SE9       30.09F
Southold         N/A     54  50  87 SE12        N/A
Montauk          N/A     51  47  86 SE8G21    30.11F
$$

NYZ052-065-067-250900-
Hudson Valley

CITY           SKY/WX    TMP DP  RH WIND       PRES   REMARKS
White Plains   LGT RAIN  50  48  93 E8        30.04F
Larchmont Harb   N/A     46 N/A N/A NE18        N/A
Croton On Huds   N/A     52 N/A N/A NE1         N/A
Somers           N/A     50  48  93 E6          N/A
Brewster         N/A     48  48 100 E3          N/A
Newburgh       LGT RAIN  48  48 100 E9        30.06F
Montgomery     CLOUDY    48  46  93 N9        30.04F
Otisville        N/A     46  46 100 NE5         N/A
Warwick          N/A     48  48 100 NE3         N/A
Suffern          N/A     48  48 100 NE3         N/A
Poughkeepsie   LGT RAIN  49  47  93 N5        30.06F
Albany         LGT RAIN  49  45  86 CALM      30.11F
$$

NJZ001-105-106-008-010-013-015-019>022-104-250900-
New Jersey

CITY           SKY/WX    TMP DP  RH WIND       PRES   REMARKS
Newark/Liberty LGT RAIN  53  53 100 E12       30.02F FOG
Teterboro      LGT RAIN  52  50  93 E7        30.02F FOG
Caldwell       LGT RAIN  50  50 100 E8        30.02F FOG
Somerville     LGT RAIN  53  53 100 VRB5      29.97F
Linden         DRIZZLE   53  51  93 SE12      30.01F
Perth Amboy      N/A     50 N/A N/A E14         N/A
Sussex         CLOUDY    48  46  93 NE6       30.03F
Andover          N/A     50  49  96 NE5       30.00F
Trenton        LGT RAIN  55  53  93 E12       29.95F FOG
Millville      LGT RAIN  56  55  97 E12       29.90F FOG
Atlantic City  LGT RAIN  55  55 100 E15       29.92F FOG
Wrightstown    LGT RAIN  54  54  98 E12       29.93  FOG
Toms River     LGT RAIN  54  54 100 E10G17    29.97F FOG
Belmar         LGT RAIN  53  52  96 E14       29.99F FOG
$$

PAZ047>061-062-071-250900-
Eastern Pennsylvania

CITY           SKY/WX    TMP DP  RH WIND       PRES   REMARKS
Philadelphia   LGT RAIN  55  54  96 E10       29.92  FOG
Allentown      RAIN      54  51  90 E13       29.96F FOG
Scranton       LGT RAIN  49  48  97 N10       29.97F
$$

CTZ002-004>006-009-010-012-RIZ004-006-007-MAZ004-011-015-250900-
Southern New England

 In CT

CITY           SKY/WX    TMP DP  RH WIND       PRES   REMARKS
Bradley Intl   LGT RAIN  50  42  74 N5        30.11F
Hartford       LGT RAIN  53  45  74 CALM      30.11F
Danbury        LGT RAIN  51  49  92 E7        30.08F
Wtrbury/Oxford LGT RAIN  51  49  92 E8        30.09F
Norwalk Harbor   N/A     46 N/A N/A NE18        N/A
Bridgeport     LGT RAIN  49  46  90 NE12      30.08F
Meriden        LGT RAIN  52  47  83 CALM      30.10F
New Haven      CLOUDY    52  47  83 E9        30.08F
Chester        LGT RAIN  52  48  87 E7        30.10F
Groton         LGT RAIN  50  47  89 E13       30.11F
Willimantic    LGT RAIN  52  44  74 CALM      30.13F

 In RI

CITY           SKY/WX    TMP DP  RH WIND       PRES   REMARKS
Providence     FAIR      50  45  83 E3        30.16F
Block Island   LGT RAIN  49  46  90 SE20      30.12F
Westerly       CLOUDY    51  47  86 E10       30.12F

In MA

CITY           SKY/WX    TMP DP  RH WIND       PRES   REMARKS
Boston         FAIR      48  40  73 E7        30.17F
Worcester      CLOUDY    47  38  71 SE6       30.14F
Westfield      LGT RAIN  49  44  83 N6        30.12F
Provincetown   FAIR      51  45  79 S8        30.19F
Nantucket      MOCLDY    49  47  93 SE15      30.17F
$$

ANZ330-335-338-340-345-350-353-355-250900-
Coastal Marine Observations


STATION/POSITION TIME  SKY/WX   TEMP    WIND        PRES    VSBY  WAVE
                                AIR SEA DIR/SP/G                  HT/PER
                 (UTC)          (F)     (DEG/KT/KT) (MB)    (MI)  (FT/S)
NY Harb Entrance 0750            49 47  100/ 12/ 14 1016.5          4/ 7
20 S Fire Island 0750            49 44  110/ 14/ 17 1016.6          6/ 7
23 SSW Montauk P 0750            48 45  130/ 16/ 17 1018.8          4/ 6
15 E Barnegat Li 0730               46                N/A           6/ 8
Hudson Canyon    0750            50 45  110/ 12/ 14 1016.2          6/ 8
Kings Point      0748            54 47  160/  1/  6 1018.3
Execution Rocks  NOT AVBL
Western LI Sound NOT AVBL
Central LI Sound 0745            46      90/ 12/ 14   N/A           2
Robbins Reef     0748            53     110/ 16/ 18 1017.1
$$


>>>>>>>>>>>>>>>>>>>>>>>>>>>> KEY <<<<<<<<<<<<<<<<<<<<<<<<<<<
>                                                          <
>     SKY/WX - Sky Condition/Present Weather               <
>     TMP    - Temperature in Fahrenheit                   <
>     DP     - Dew Point in Fahrenheit                     <
>     RH     - Relative Humidity in Percent                <
>     WIND   - Direction (from) and Speed in MPH           <
>     PRES   - Mean Sea Level Pressure (inches of Hg)      <
>     WCI    - Wind Chill Index                            <
>     VSB    - Visibility in Miles                         <
>     HX     - Heat Index                                  <
>     TC     - Temperature in Celsius                      <
>     VRB    - Varibale Wind Direction                     <
>                                                          <
>>>>>>>>>>>>>>>>>>>>>>>>>>>> KEY <<<<<<<<<<<<<<<<<<<<<<<<<<<




USA.gov is the U.S. government's official web portal to all federal, state and local government web resources and services.